timestamp,wind_dir_avg,wind_spd_max_dir,wind_spd_avg,wind_spd_gust,battery_voltage,lat,long
2018-12-09 00:00:00+00:00,50.0,49.0,10.07,11.45,,47.59359,-54.27349
2018-12-09 00:10:00+00:00,45.0,50.0,10.11,12.65,,47.59359,-54.27349
2018-12-09 00:20:00+00:00,48.0,42.0,10.03,11.11,,47.59359,-54.27349
2018-12-09 00:30:00+00:00,40.0,42.0,10.38,12.64,,47.59359,-54.27349
2018-12-09 00:40:00+00:00,38.0,45.0,11.61,13.57,,47.59359,-54.27349
2018-12-09 00:50:00+00:00,38.0,44.0,11.78,13.12,,47.59359,-54.27349
2018-12-09 01:00:00+00:00,41.0,55.0,11.74,13.83,,47.59359,-54.27349
2018-12-09 01:10:00+00:00,45.0,57.0,11.95,13.94,,47.59359,-54.27349
2018-12-09 01:20:00+00:00,39.0,41.0,11.35,12.72,,47.59359,-54.27349
2018-12-09 01:30:00+00:00,46.0,51.0,10.89,12.68,,47.59359,-54.27349
2018-12-09 01:40:00+00:00,39.0,32.0,9.89,11.73,,47.59359,-54.27349
2018-12-09 01:50:00+00:00,39.0,44.0,9.68,11.37,,47.59359,-54.27349
2018-12-09 02:00:00+00:00,34.0,36.0,8.59,9.77,,47.59359,-54.27349
2018-12-09 02:10:00+00:00,33.0,39.0,9.67,10.6,,47.59359,-54.27349
2018-12-09 02:20:00+00:00,33.0,28.0,8.71,10.4,,47.59359,-54.27349
2018-12-09 02:30:00+00:00,28.0,32.0,7.71,8.77,,47.59359,-54.27349
2018-12-09 02:40:00+00:00,19.0,16.0,7.7,9.08,,47.59359,-54.27349
2018-12-09 02:50:00+00:00,15.0,15.0,8.47,9.53,,47.59359,-54.27349
2018-12-09 03:00:00+00:00,14.0,14.0,8.39,9.52,,47.59359,-54.27349
2018-12-09 03:10:00+00:00,27.0,27.0,8.02,10.91,,47.59359,-54.27349
2018-12-09 03:20:00+00:00,17.0,11.0,8.06,9.96,,47.59359,-54.27349
2018-12-09 03:30:00+00:00,11.0,10.0,9.67,10.5,,47.59359,-54.27349
2018-12-09 03:40:00+00:00,359.0,2.0,8.17,9.2,,47.59359,-54.27349
2018-12-09 03:50:00+00:00,15.0,20.0,8.31,9.48,,47.59359,-54.27349
2018-12-09 04:00:00+00:00,20.0,15.0,7.71,8.85,,47.59359,-54.27349
2018-12-09 04:10:00+00:00,11.0,12.0,6.51,7.5,,47.59359,-54.27349
2018-12-09 04:20:00+00:00,13.0,12.0,7.38,9.09,,47.59359,-54.27349
2018-12-09 04:30:00+00:00,15.0,23.0,7.69,8.62,,47.59359,-54.27349
2018-12-09 04:40:00+00:00,11.0,8.0,7.61,8.87,,47.59359,-54.27349
2018-12-09 04:50:00+00:00,13.0,10.0,7.2,8.31,,47.59359,-54.27349
2018-12-09 05:00:00+00:00,15.0,11.0,8.78,10.24,,47.59359,-54.27349
2018-12-09 05:10:00+00:00,3.0,4.0,8.83,10.1,,47.59359,-54.27349
2018-12-09 05:20:00+00:00,356.0,357.0,9.66,11.49,,47.59359,-54.27349
2018-12-09 05:30:00+00:00,356.0,355.0,9.25,10.51,,47.59359,-54.27349
2018-12-09 05:40:00+00:00,7.0,8.0,7.76,8.36,,47.59359,-54.27349
2018-12-09 05:50:00+00:00,8.0,9.0,6.98,7.76,,47.59359,-54.27349
2018-12-09 06:00:00+00:00,3.0,347.0,7.41,10.44,,47.59359,-54.27349
2018-12-09 06:10:00+00:00,352.0,348.0,8.0,9.26,,47.59359,-54.27349
2018-12-09 06:20:00+00:00,355.0,3.0,8.31,10.08,,47.59359,-54.27349
2018-12-09 06:30:00+00:00,349.0,347.0,10.24,11.84,,47.59359,-54.27349
2018-12-09 06:40:00+00:00,346.0,349.0,11.68,13.15,,47.59359,-54.27349
2018-12-09 06:50:00+00:00,346.0,347.0,13.41,15.08,,47.59359,-54.27349
2018-12-09 07:00:00+00:00,346.0,344.0,11.87,13.46,,47.59359,-54.27349
2018-12-09 07:10:00+00:00,353.0,356.0,11.07,11.97,,47.59359,-54.27349
2018-12-09 07:20:00+00:00,346.0,345.0,10.39,11.36,,47.59359,-54.27349
2018-12-09 07:30:00+00:00,342.0,345.0,10.73,11.75,,47.59359,-54.27349
2018-12-09 07:40:00+00:00,345.0,347.0,11.52,13.02,,47.59359,-54.27349
2018-12-09 07:50:00+00:00,347.0,339.0,10.86,12.76,,47.59359,-54.27349
2018-12-09 08:00:00+00:00,331.0,334.0,10.12,11.49,,47.59359,-54.27349
2018-12-09 08:10:00+00:00,331.0,323.0,8.13,10.04,,47.59359,-54.27349
2018-12-09 08:20:00+00:00,337.0,340.0,9.19,10.54,,47.59359,-54.27349
2018-12-09 08:30:00+00:00,335.0,335.0,9.96,11.32,,47.59359,-54.27349
2018-12-09 08:40:00+00:00,338.0,330.0,9.44,11.39,,47.59359,-54.27349
2018-12-09 08:50:00+00:00,331.0,329.0,9.64,12.49,,47.59359,-54.27349
2018-12-09 09:00:00+00:00,338.0,330.0,8.39,10.73,,47.59359,-54.27349
2018-12-09 09:10:00+00:00,328.0,336.0,7.09,9.03,,47.59359,-54.27349
2018-12-09 09:20:00+00:00,337.0,334.0,8.9,10.18,,47.59359,-54.27349
2018-12-09 09:30:00+00:00,319.0,313.0,8.6,10.2,,47.59359,-54.27349
2018-12-09 09:40:00+00:00,323.0,321.0,7.48,8.58,,47.59359,-54.27349
2018-12-09 09:50:00+00:00,323.0,327.0,8.0,9.99,,47.59359,-54.27349
2018-12-09 10:00:00+00:00,326.0,324.0,7.64,9.3,,47.59359,-54.27349
2018-12-09 10:10:00+00:00,325.0,321.0,6.3,7.42,,47.59359,-54.27349
2018-12-09 10:20:00+00:00,318.0,312.0,5.69,6.83,,47.59359,-54.27349
2018-12-09 10:30:00+00:00,316.0,330.0,6.08,7.9,,47.59359,-54.27349
2018-12-09 10:40:00+00:00,319.0,314.0,6.08,7.66,,47.59359,-54.27349
2018-12-09 10:50:00+00:00,312.0,325.0,7.45,10.12,,47.59359,-54.27349
2018-12-09 11:00:00+00:00,315.0,309.0,8.84,10.08,,47.59359,-54.27349
2018-12-09 11:10:00+00:00,306.0,311.0,7.22,8.13,,47.59359,-54.27349
2018-12-09 11:20:00+00:00,303.0,295.0,7.37,8.64,,47.59359,-54.27349
2018-12-09 11:30:00+00:00,294.0,289.0,7.14,8.49,,47.59359,-54.27349
2018-12-09 11:40:00+00:00,305.0,301.0,7.25,8.97,,47.59359,-54.27349
2018-12-09 11:50:00+00:00,299.0,290.0,7.02,8.85,,47.59359,-54.27349
2018-12-09 12:00:00+00:00,290.0,297.0,6.78,8.25,,47.59359,-54.27349
2018-12-09 12:10:00+00:00,296.0,306.0,5.7,6.48,,47.59359,-54.27349
2018-12-09 12:20:00+00:00,299.0,301.0,4.26,5.56,,47.59359,-54.27349
2018-12-09 12:30:00+00:00,301.0,303.0,5.54,6.61,,47.59359,-54.27349
2018-12-09 12:40:00+00:00,289.0,303.0,4.66,6.19,,47.59359,-54.27349
2018-12-09 12:50:00+00:00,263.0,282.0,6.57,8.09,,47.59359,-54.27349
2018-12-09 13:00:00+00:00,304.0,314.0,5.79,6.47,,47.59359,-54.27349
2018-12-09 13:10:00+00:00,298.0,294.0,5.54,7.31,,47.59359,-54.27349
2018-12-09 13:20:00+00:00,294.0,287.0,5.21,6.9,,47.59359,-54.27349
2018-12-09 13:30:00+00:00,294.0,285.0,6.45,8.64,,47.59359,-54.27349
2018-12-09 13:40:00+00:00,278.0,284.0,6.07,8.49,,47.59359,-54.27349
2018-12-09 13:50:00+00:00,285.0,276.0,6.52,7.69,,47.59359,-54.27349
2018-12-09 14:00:00+00:00,296.0,307.0,8.14,11.62,,47.59359,-54.27349
2018-12-09 14:10:00+00:00,289.0,286.0,7.57,10.4,,47.59359,-54.27349
2018-12-09 14:20:00+00:00,302.0,300.0,7.53,8.88,,47.59359,-54.27349
2018-12-09 14:30:00+00:00,289.0,282.0,10.69,13.23,,47.59359,-54.27349
2018-12-09 14:40:00+00:00,279.0,277.0,8.64,10.45,,47.59359,-54.27349
2018-12-09 14:50:00+00:00,296.0,303.0,10.62,14.29,,47.59359,-54.27349
2018-12-09 15:00:00+00:00,296.0,297.0,10.46,12.87,,47.59359,-54.27349
2018-12-09 15:10:00+00:00,285.0,284.0,9.97,12.01,,47.59359,-54.27349
2018-12-09 15:20:00+00:00,305.0,307.0,8.25,11.36,,47.59359,-54.27349
2018-12-09 15:30:00+00:00,293.0,300.0,10.75,12.57,,47.59359,-54.27349
2018-12-09 15:40:00+00:00,304.0,298.0,8.31,10.21,,47.59359,-54.27349
2018-12-09 15:50:00+00:00,301.0,301.0,10.07,12.05,,47.59359,-54.27349
2018-12-09 16:00:00+00:00,297.0,305.0,11.78,15.5,,47.59359,-54.27349
2018-12-09 16:10:00+00:00,302.0,307.0,11.53,13.52,,47.59359,-54.27349
2018-12-09 16:20:00+00:00,295.0,301.0,11.36,13.15,,47.59359,-54.27349
2018-12-09 16:30:00+00:00,295.0,300.0,13.99,17.29,,47.59359,-54.27349
2018-12-09 16:40:00+00:00,305.0,306.0,12.75,13.93,,47.59359,-54.27349
2018-12-09 16:50:00+00:00,298.0,294.0,13.87,16.41,,47.59359,-54.27349
2018-12-09 17:00:00+00:00,294.0,302.0,11.52,14.2,,47.59359,-54.27349
2018-12-09 17:10:00+00:00,297.0,303.0,11.5,14.98,,47.59359,-54.27349
2018-12-09 17:20:00+00:00,306.0,313.0,10.92,12.09,,47.59359,-54.27349
2018-12-09 17:30:00+00:00,287.0,285.0,11.36,13.29,,47.59359,-54.27349
2018-12-09 17:40:00+00:00,301.0,300.0,10.74,12.71,,47.59359,-54.27349
2018-12-09 17:50:00+00:00,296.0,303.0,12.25,15.33,,47.59359,-54.27349
2018-12-09 18:00:00+00:00,287.0,286.0,10.3,12.59,,47.59359,-54.27349
2018-12-09 18:10:00+00:00,289.0,297.0,9.2,12.62,,47.59359,-54.27349
2018-12-09 18:20:00+00:00,296.0,290.0,10.25,12.42,,47.59359,-54.27349
2018-12-09 18:30:00+00:00,300.0,307.0,9.76,11.58,,47.59359,-54.27349
2018-12-09 18:40:00+00:00,296.0,290.0,9.39,11.08,,47.59359,-54.27349
2018-12-09 18:50:00+00:00,292.0,296.0,7.78,9.61,,47.59359,-54.27349
2018-12-09 19:00:00+00:00,286.0,286.0,9.24,11.54,,47.59359,-54.27349
2018-12-09 19:10:00+00:00,294.0,294.0,8.62,10.13,,47.59359,-54.27349
2018-12-09 19:20:00+00:00,297.0,287.0,7.77,9.35,,47.59359,-54.27349
2018-12-09 19:30:00+00:00,309.0,315.0,11.78,14.05,,47.59359,-54.27349
2018-12-09 19:40:00+00:00,299.0,299.0,10.45,12.13,,47.59359,-54.27349
2018-12-09 19:50:00+00:00,292.0,287.0,10.69,12.12,,47.59359,-54.27349
2018-12-09 20:00:00+00:00,295.0,294.0,12.38,14.45,,47.59359,-54.27349
2018-12-09 20:10:00+00:00,298.0,298.0,14.7,16.62,,47.59359,-54.27349
2018-12-09 20:20:00+00:00,293.0,295.0,13.43,15.51,,47.59359,-54.27349
2018-12-09 20:30:00+00:00,293.0,295.0,13.59,15.83,,47.59359,-54.27349
2018-12-09 20:40:00+00:00,291.0,293.0,11.92,14.16,,47.59359,-54.27349
2018-12-09 20:50:00+00:00,298.0,306.0,8.84,10.38,,47.59359,-54.27349
2018-12-09 21:00:00+00:00,296.0,305.0,11.48,14.08,,47.59359,-54.27349
2018-12-09 21:10:00+00:00,292.0,292.0,10.12,11.66,,47.59359,-54.27349
2018-12-09 21:20:00+00:00,286.0,291.0,10.66,12.56,,47.59359,-54.27349
2018-12-09 21:30:00+00:00,301.0,303.0,11.67,14.54,,47.59359,-54.27349
2018-12-09 21:40:00+00:00,283.0,286.0,10.42,12.23,,47.59359,-54.27349
2018-12-09 21:50:00+00:00,280.0,280.0,10.59,13.53,,47.59359,-54.27349
2018-12-09 22:00:00+00:00,282.0,290.0,11.21,14.74,,47.59359,-54.27349
2018-12-09 22:10:00+00:00,289.0,286.0,11.01,13.04,,47.59359,-54.27349
2018-12-09 22:20:00+00:00,295.0,286.0,11.11,12.81,,47.59359,-54.27349
2018-12-09 22:30:00+00:00,287.0,281.0,11.24,13.01,,47.59359,-54.27349
2018-12-09 22:40:00+00:00,291.0,294.0,12.25,14.26,,47.59359,-54.27349
2018-12-09 22:50:00+00:00,293.0,281.0,13.33,15.67,,47.59359,-54.27349
2018-12-09 23:00:00+00:00,298.0,308.0,12.96,15.29,,47.59359,-54.27349
2018-12-09 23:10:00+00:00,289.0,291.0,11.8,16.16,,47.59359,-54.27349
2018-12-09 23:20:00+00:00,287.0,284.0,11.03,12.29,,47.59359,-54.27349
2018-12-09 23:30:00+00:00,288.0,293.0,12.48,14.52,,47.59359,-54.27349
2018-12-09 23:40:00+00:00,288.0,287.0,13.08,14.42,,47.59359,-54.27349
2018-12-09 23:50:00+00:00,293.0,295.0,11.82,13.8,,47.59359,-54.27349
